Regional Weather Roundup
Issued by NWS

Home | Current Version | Previous Version | Graphics & Text | Print | Product List | Glossary On
Versions: 1 2 3 4 5 6 7 8 9 10 11 12 13 14 15 16 17 18 19 20 21 22 23 24 25 26 27 28 29 30 31 32 33 34 35 36 37 38 39 40 41 42 43 44 45 46 47 48 49 50
000
ASUS43 KIND 021009
RWRIN

WEATHER ROUNDUP FOR INDIANA
NATIONAL WEATHER SERVICE INDIANAPOLIS IN
600 AM EDT THU OCT 02 2014

NOTE: "FAIR" INDICATES FEW OR NO CLOUDS BELOW 12,000 FEET WITH NO
SIGNIFICANT WEATHER AND/OR OBSTRUCTIONS TO VISIBILITY.

* - STATION DOES NOT REPORT WEATHER SUCH AS PRECIPITATION OR FOG.

+ - STATION NOT QUALITY CONTROLLED BY THE NATIONAL WEATHER SERVICE.
    USE DATA WITH CAUTION...ESPECIALLY DEWPOINT AND RELATIVE
    HUMIDITY OBSERVATIONS.

INZ001>003-010>013-019-020-021100-
NORTHWEST INDIANA

CITY           SKY/WX    TMP DP  RH WIND       PRES   REMARKS
GARY /AIRPORT/ CLOUDY    63  57  82 SE9       29.89S
KNOX *+        CLOUDY    60  54  80 SE5       29.91S
LA PORTE +     LGT RAIN  61  57  87 SE5       29.93F
MICHIGAN CITY+ CLOUDY    59  54  82 CALM      29.91F
MONTICELLO +   CLOUDY    63  56  80 S5        29.92R
RENSSELAER +   CLOUDY    59  59 100 SE5       29.91S FOG
VALPARAISO     LGT RAIN  61  55  81 SE7       29.91F

$$

LMZ046-743>745-021100-
SOUTHERN LAKE MICHIGAN

STATION/POSITION TIME  TEMP WIND        PRES
                       AIR  DIR/SP/G
                 (UTC) (F)  (DEG/KT/KT) (MB)
MICHIGAN CITY    1000   60  120/ 11/ 13   N/A

$$

INZ004-005-014>016-021>024-021100-
NORTH CENTRAL INDIANA

CITY           SKY/WX    TMP DP  RH WIND       PRES   REMARKS
GOSHEN         CLOUDY    60  50  69 SE10      29.94S
LOGANSPORT +   CLOUDY    61  52  72 SE6       29.94S
PERU/GRISSOM   MOCLDY    59  57  94 SE8       29.93F
ROCHESTER +    CLOUDY    63  54  72 SE7       29.93F
SOUTH BEND     LGT RAIN  64  52  63 S9        29.94
WARSAW +       CLOUDY    59  50  72 SE5       29.95S

$$

INZ006>009-017-018-025>027-021100-
NORTHEAST INDIANA

CITY           SKY/WX    TMP DP  RH WIND       PRES   REMARKS
ANGOLA *+      CLOUDY    55  50  82 SE8       29.99R
AUBURN +       PTCLDY    54  46  76 CALM      30.00R
FORT WAYNE     MOCLDY    55  49  80 SE3       29.98S
HUNTINGTON +   PTCLDY    55  50  81 SE3       29.96F

$$

INZ028-029-035-036-043>045-051>053-021100-
WEST CENTRAL INDIANA

CITY           SKY/WX    TMP DP  RH WIND       PRES   REMARKS
GREENCASTLE +  CLOUDY    61  59  94 CALM      29.94R
LAFAYETTE      CLOUDY    63  56  78 SE3       29.92R
TERRE HAUTE    CLOUDY    64  59  83 E3        29.92R

$$

INZ030>032-037>040-046>048-054>057-064-065-021100-
CENTRAL INDIANA

CITY           SKY/WX    TMP DP  RH WIND       PRES   REMARKS
CP ATTERBURY + PTCLDY    54  52  94 CALM      29.97R FOG
FRANKFORT +    CLOUDY    63  56  79 S5        29.94S
INDIANAPOLIS   CLOUDY    61  55  81 SE5       29.94S
-EAGLE CREEK   MOCLDY    61  55  81 SE5       29.94F
KOKOMO *+      MOCLDY    57  52  82 SE9       29.95S
MARION +       PTCLDY    57  49  75 SE7       29.96S
MT COMFORT *+  PTCLDY    59  52  77 SE8       29.96F
SHELBYVILLE    PTCLDY    62  55  77 SE8       29.96S
ZIONSVILLE +   MOCLDY    61  54  78 SE5       29.95F

$$

INZ033-034-041-042-049-050-058-059-021100-
EAST CENTRAL INDIANA

CITY           SKY/WX    TMP DP  RH WIND       PRES   REMARKS
MUNCIE         PTCLDY    61  52  72 S6        29.97S

$$

INZ060-061-067>069-081>083-085>088-021100-
SOUTHWEST INDIANA

CITY           SKY/WX    TMP DP  RH WIND       PRES   REMARKS
EVANSVILLE     MOCLDY    66  58  75 CALM      29.93S
WASHINGTON +   CLOUDY    65  57  73 S8        29.92S

$$

INZ062-063-066-070>080-084-089>092-021100-
SOUTH CENTRAL AND SOUTHEAST INDIANA

CITY           SKY/WX    TMP DP  RH WIND       PRES   REMARKS
BLOOMINGTON    MOCLDY    63  58  83 SE9       29.95R

$$




USA.gov is the U.S. government's official web portal to all federal, state and local government web resources and services.